User: anonymous   Login
Location: ????????
(37.6846°N, 24.0673°E)
Time: 09:07:32
(UTC+00:00)
Language:

Cosmos 1975 - Orbit

View from above orbital plane
View from above orbital plane
View from above satellite
View from above satellite

Ground track
Ground track

The orbit data is extracted from the following two-line orbital elements,

1 19573U 88093A   20271.95137376 +.00000161 +00000-0 +92658-5 0  9999
2 19573 082.5173 264.8879 0014627 167.7972 192.3612 15.04933585718920
Epoch (UTC): 27 September 2020 22:49:58
Eccentricity: 0.0014627
inclination: 82.5173°
perigee height: 541 km
apogee height: 562 km
right ascension of ascending node: 264.8879°
argument of perigee: 167.7972°
revolutions per day: 15.04933585
mean anomaly at epoch: 192.3612°
orbit number at epoch: 71892

The dashed part of the orbit path shows where the satellite is in the earth's shadow,  

DLR